Weather History for Minneapolis Flying Cloud, MN

Change the Weather History Date:

Sunday, September 22, 2013

  Actual Average Record
Temperature  
Mean Temperature 62 °F -  
Max Temperature 77 °F 67 °F 82 °F (2004)
Min Temperature 48 °F 47 °F 41 °F (1998)
Degree Days  
Heating Degree Days 4    
Growing Degree Days 12 (Base 50)    
Moisture  
Dew Point 49 °F    
Average Humidity 67    
Maximum Humidity 89    
Minimum Humidity 44    
Precipitation  
Precipitation 0.00 in - - ()
Sea Level Pressure  
Sea Level Pressure 29.91 in    
Wind  
Wind Speed 9 mph (SE)    
Max Wind Speed 20 mph    
Max Gust Speed 26 mph    
Visibility 10 miles    
Events      
Averages and records for this station are not official NWS values.
T = Trace of Precipitation, MM = Missing Value Source: NWS Daily Summary

Daily Weather History Graph

Daily Weather History Graph

Search for Another Location

Airport:

Trip Planner

Search our weather history database for the weather conditions in past years. The results will help you decide how hot, cold, wet, or windy it might be!

Date:

Astronomy

Sep. 22, 2013 Rise Set
Actual Time 7:01 AM CDT 7:10 PM CDT
Civil Twilight 6:32 AM CDT 7:39 PM CDT
Nautical Twilight 5:57 AM CDT 8:14 PM CDT
Astronomical Twilight 5:22 AM CDT 8:49 PM CDT
Moon 8:50 PM CDT (9/22) 10:32 AM CDT (9/22)
Length of Visible Light 13h 07m
Length of Day
12h 09m
Waning Gibbous, 88% of the Moon is Illuminated
Sep 22
Waning Gibbous
Sep 26
Last Quarter
Oct 4
New
Oct 11
First Quarter
Oct 18
Full

Hourly Weather History & Observations

Time (CDT) Temp. Dew Point Humidity Pressure Visibility Wind Dir Wind Speed Gust Speed Precip Events Conditions
12:53 AM 50.0 °F 46.9 °F 89% 29.95 in 10.0 mi ENE 4.6 mph - N/A   Clear
1:53 AM 48.9 °F 44.1 °F 83% 29.96 in 10.0 mi SE 4.6 mph - N/A   Clear
2:53 AM 48.0 °F 45.0 °F 89% 29.95 in 10.0 mi East 4.6 mph - N/A   Clear
3:53 AM 50.0 °F 44.1 °F 80% 29.95 in 10.0 mi ESE 6.9 mph - N/A   Clear
4:53 AM 50.0 °F 44.1 °F 80% 29.95 in 10.0 mi ESE 6.9 mph - N/A   Clear
5:53 AM 50.0 °F 44.1 °F 80% 29.96 in 10.0 mi ESE 6.9 mph - N/A   Clear
6:53 AM 48.9 °F 43.0 °F 80% 29.97 in 10.0 mi East 6.9 mph - N/A   Clear
7:53 AM 50.0 °F 44.1 °F 80% 29.96 in 10.0 mi ESE 8.1 mph - N/A   Clear
8:53 AM 54.0 °F 46.0 °F 75% 29.96 in 10.0 mi ESE 11.5 mph - N/A   Clear
9:53 AM 57.9 °F 46.9 °F 67% 29.96 in 10.0 mi SE 12.7 mph - N/A   Clear
10:53 AM 62.1 °F 48.9 °F 62% 29.96 in 10.0 mi SE 13.8 mph - N/A   Clear
11:53 AM 66.9 °F 50.0 °F 54% 29.94 in 10.0 mi SE 16.1 mph - N/A   Clear
12:53 PM 70.0 °F 51.1 °F 51% 29.91 in 8.0 mi SE 18.4 mph 23.0 mph N/A   Clear
1:53 PM 73.9 °F 53.1 °F 48% 29.88 in 10.0 mi SE 15.0 mph 21.9 mph N/A   Clear
2:53 PM 75.0 °F 52.0 °F 44% 29.87 in 10.0 mi SE 15.0 mph 21.9 mph N/A   Clear
3:53 PM 75.9 °F 53.1 °F 45% 29.85 in 10.0 mi SE 19.6 mph 26.5 mph N/A   Clear
4:53 PM 75.9 °F 54.0 °F 46% 29.84 in 10.0 mi SSE 12.7 mph 19.6 mph N/A   Clear
5:53 PM 75.0 °F 54.0 °F 48% 29.84 in 10.0 mi SSE 16.1 mph 20.7 mph N/A   Clear
6:53 PM 71.1 °F 54.0 °F 55% 29.85 in 10.0 mi SE 12.7 mph 19.6 mph N/A   Clear
7:53 PM 68.0 °F 54.0 °F 61% 29.86 in 10.0 mi ESE 9.2 mph - N/A   Clear
8:53 PM 66.0 °F 54.0 °F 65% 29.87 in 10.0 mi SE 15.0 mph - N/A   Clear
9:53 PM 63.0 °F 54.0 °F 72% 29.87 in 10.0 mi SE 16.1 mph - N/A   Clear
10:53 PM 62.1 °F 53.1 °F 72% 29.87 in 10.0 mi SE 10.4 mph - N/A   Clear
11:53 PM 61.0 °F 53.1 °F 75% 29.88 in 10.0 mi SE 11.5 mph - N/A   Clear